When you browse on this site, cookies collect data to enhance your experience and personalize the content and advertising you see.
Visit our Privacy Policy to learn more. By continuing to use the site, you agree to this use of cookies and data.
  • în România
  • Lista ţărilor
  • Pe 7 zile
  • Temperatura apei
  • Hartă satelitară
  • Meteo pe hartă
  • Widget-uri
  • user-avatar
    Intrare

    Meteo pe oră la Konstantyna

    Astăzi, 22 Martie, Vineri

    Timp Temperatura Precipitaţii Vânt Presiune Umiditate
    00:00 +8°C° 0 mm 0 m/s 709 mmHg 98%
    01:00 +9°C° 1.2 mm 1 m/s 709 mmHg 98%
    02:00 +9°C° 1.2 mm 1 m/s 709 mmHg 98%
    03:00 +8°C° 1.2 mm 2 m/s 709 mmHg 98%
    04:00 +8°C° 1 mm 2 m/s 709 mmHg 98%
    05:00 +9°C° 1 mm 1 m/s 709 mmHg 98%
    06:00 +9°C° 0 mm 1 m/s 710 mmHg 98%
    07:00 +9°C° 0.1 mm 1 m/s 710 mmHg 93%
    08:00 +10°C° 0.1 mm 1 m/s 710 mmHg 88%
    09:00 +11°C° 0.1 mm 1 m/s 711 mmHg 83%
    10:00 +11°C° 0.5 mm 1 m/s 711 mmHg 79%
    11:00 +12°C° 0.5 mm 2 m/s 711 mmHg 75%
    12:00 +13°C° 0.5 mm 2 m/s 711 mmHg 70%
    13:00 +13°C° 0.7 mm 2 m/s 711 mmHg 72%
    14:00 +13°C° 0.7 mm 2 m/s 711 mmHg 74%
    15:00 +12°C° 0.7 mm 3 m/s 710 mmHg 75%
    16:00 +11°C° 0.3 mm 3 m/s 710 mmHg 81%
    17:00 +9°C° 0.3 mm 3 m/s 710 mmHg 88%
    18:00 +8°C° 0.3 mm 2 m/s 711 mmHg 94%
    19:00 +8°C° 0.1 mm 2 m/s 711 mmHg 95%
    20:00 +8°C° 0.1 mm 2 m/s 711 mmHg 96%
    21:00 +9°C° 0.1 mm 1 m/s 712 mmHg 97%
    22:00 +8°C° 0.3 mm 1 m/s 712 mmHg 97%
    23:00 +8°C° 0.3 mm 1 m/s 712 mmHg 97%

    Mâine, 23 Martie, Sâmbătă

    Timp Temperatura Precipitaţii Vânt Presiune Umiditate
    00:00 +8°C° 0.3 mm 1 m/s 712 mmHg 97%
    01:00 +8°C° 0.7 mm 1 m/s 711 mmHg 96%
    02:00 +7°C° 0.7 mm 2 m/s 711 mmHg 96%
    03:00 +7°C° 0.7 mm 2 m/s 711 mmHg 96%
    04:00 +8°C° 0.4 mm 2 m/s 711 mmHg 96%
    05:00 +8°C° 0.4 mm 2 m/s 712 mmHg 97%
    06:00 +8°C° 0.4 mm 2 m/s 712 mmHg 97%
    07:00 +8°C° 0.4 mm 2 m/s 712 mmHg 96%
    08:00 +9°C° 0.4 mm 2 m/s 713 mmHg 95%
    09:00 +9°C° 0.4 mm 3 m/s 713 mmHg 93%
    10:00 +9°C° 0.1 mm 3 m/s 713 mmHg 93%
    11:00 +10°C° 0.1 mm 3 m/s 713 mmHg 92%
    12:00 +10°C° 0.1 mm 3 m/s 713 mmHg 91%
    13:00 +10°C° 0.1 mm 3 m/s 713 mmHg 90%
    14:00 +10°C° 0.1 mm 3 m/s 713 mmHg 89%
    15:00 +12°C° 0.1 mm 2 m/s 713 mmHg 88%
    16:00 +10°C° 0.1 mm 2 m/s 713 mmHg 90%
    17:00 +10°C° 0.1 mm 2 m/s 713 mmHg 91%
    18:00 +10°C° 0.1 mm 1 m/s 713 mmHg 93%
    19:00 +10°C° 0 mm 1 m/s 714 mmHg 94%
    20:00 +9°C° 0 mm 1 m/s 714 mmHg 94%
    21:00 +8°C° 0 mm 0 m/s 714 mmHg 95%
    22:00 +7°C° 0 mm 0 m/s 714 mmHg 95%
    23:00 +7°C° 0 mm 0 m/s 714 mmHg 95%

    Poimâine, 24 Martie, Duminică

    Timp Temperatura Precipitaţii Vânt Presiune Umiditate
    00:00 +6°C° 0 mm 0 m/s 714 mmHg 95%
    01:00 +7°C° 0 mm 1 m/s 714 mmHg 94%
    02:00 +7°C° 0 mm 1 m/s 714 mmHg 94%
    03:00 +7°C° 0 mm 1 m/s 714 mmHg 93%
    04:00 +7°C° 0 mm 1 m/s 714 mmHg 93%
    05:00 +7°C° 0 mm 1 m/s 714 mmHg 93%
    06:00 +7°C° 0 mm 1 m/s 714 mmHg 93%
    07:00 +9°C° 0 mm 1 m/s 715 mmHg 85%
    08:00 +12°C° 0 mm 1 m/s 715 mmHg 77%
    09:00 +14°C° 0 mm 1 m/s 716 mmHg 69%
    10:00 +15°C° 0 mm 1 m/s 716 mmHg 63%
    11:00 +16°C° 0 mm 1 m/s 716 mmHg 56%
    12:00 +19°C° 0 mm 1 m/s 716 mmHg 50%
    13:00 +19°C° 0 mm 1 m/s 715 mmHg 49%
    14:00 +19°C° 0 mm 1 m/s 715 mmHg 47%
    15:00 +17°C° 0 mm 0 m/s 715 mmHg 46%
    16:00 +16°C° 0 mm 1 m/s 714 mmHg 56%
    17:00 +15°C° 0 mm 1 m/s 714 mmHg 66%
    18:00 +13°C° 0 mm 2 m/s 714 mmHg 75%
    19:00 +12°C° 0 mm 2 m/s 714 mmHg 79%
    20:00 +11°C° 0 mm 1 m/s 714 mmHg 84%
    21:00 +10°C° 0 mm 1 m/s 714 mmHg 88%
    22:00 +10°C° 0 mm 1 m/s 714 mmHg 87%
    23:00 +10°C° 0 mm 1 m/s 714 mmHg 85%

    25 Martie, Luni

    Timp Temperatura Precipitaţii Vânt Presiune Umiditate
    00:00 +10°C° 0 mm 1 m/s 714 mmHg 84%
    01:00 +10°C° 0 mm 1 m/s 714 mmHg 81%
    02:00 +10°C° 0 mm 1 m/s 713 mmHg 78%
    03:00 +10°C° 0 mm 1 m/s 713 mmHg 75%
    04:00 +9°C° 0 mm 1 m/s 713 mmHg 73%
    05:00 +8°C° 0 mm 2 m/s 713 mmHg 71%
    06:00 +8°C° 0 mm 2 m/s 713 mmHg 69%
    07:00 +12°C° 0 mm 2 m/s 713 mmHg 63%
    08:00 +14°C° 0 mm 2 m/s 714 mmHg 57%
    09:00 +17°C° 0 mm 2 m/s 715 mmHg 51%
    10:00 +18°C° 0 mm 2 m/s 714 mmHg 49%
    11:00 +18°C° 0 mm 2 m/s 714 mmHg 47%
    12:00 +19°C° 0 mm 2 m/s 714 mmHg 44%
    13:00 +19°C° 0.1 mm 2 m/s 714 mmHg 47%
    14:00 +19°C° 0.1 mm 3 m/s 713 mmHg 49%
    15:00 +19°C° 0.1 mm 3 m/s 713 mmHg 52%
    16:00 +17°C° 0.2 mm 2 m/s 712 mmHg 63%
    17:00 +15°C° 0.2 mm 2 m/s 712 mmHg 75%
    18:00 +13°C° 0.2 mm 2 m/s 712 mmHg 87%
    19:00 +12°C° 0 mm 2 m/s 712 mmHg 89%
    20:00 +11°C° 0 mm 1 m/s 712 mmHg 91%
    21:00 +11°C° 0 mm 1 m/s 712 mmHg 92%
    22:00 +10°C° 0 mm 1 m/s 712 mmHg 92%
    23:00 +10°C° 0 mm 1 m/s 712 mmHg 91%

    26 Martie, Marţi

    Timp Temperatura Precipitaţii Vânt Presiune Umiditate
    00:00 +10°C° 0 mm 1 m/s 712 mmHg 90%
    01:00 +10°C° 0 mm 1 m/s 712 mmHg 89%
    02:00 +10°C° 0 mm 1 m/s 711 mmHg 89%
    03:00 +10°C° 0 mm 1 m/s 711 mmHg 88%
    04:00 +10°C° 0 mm 1 m/s 711 mmHg 86%
    05:00 +10°C° 0 mm 1 m/s 711 mmHg 85%
    06:00 +10°C° 0 mm 1 m/s 711 mmHg 83%
    07:00 +12°C° 0 mm 1 m/s 712 mmHg 74%
    08:00 +15°C° 0 mm 1 m/s 712 mmHg 66%
    09:00 +18°C° 0 mm 1 m/s 713 mmHg 57%
    10:00 +18°C° 0 mm 2 m/s 713 mmHg 57%
    11:00 +18°C° 0 mm 3 m/s 713 mmHg 57%
    12:00 +19°C° 0 mm 4 m/s 713 mmHg 56%
    13:00 +19°C° 0 mm 3 m/s 713 mmHg 56%
    14:00 +19°C° 0 mm 3 m/s 713 mmHg 56%
    15:00 +18°C° 0 mm 3 m/s 713 mmHg 56%
    16:00 +16°C° 0 mm 3 m/s 712 mmHg 64%
    17:00 +14°C° 0 mm 2 m/s 712 mmHg 71%
    18:00 +12°C° 0 mm 2 m/s 712 mmHg 79%
    19:00 +10°C° 0 mm 2 m/s 713 mmHg 81%
    20:00 +9°C° 0 mm 2 m/s 713 mmHg 83%
    21:00 +9°C° 0 mm 1 m/s 714 mmHg 85%
    22:00 +9°C° 0 mm 1 m/s 714 mmHg 85%
    23:00 +8°C° 0 mm 1 m/s 714 mmHg 85%

    27 Martie, Miercuri

    Timp Temperatura Precipitaţii Vânt Presiune Umiditate
    00:00 +8°C° 0 mm 1 m/s 713 mmHg 85%
    01:00 +8°C° 0 mm 1 m/s 713 mmHg 85%
    02:00 +7°C° 0 mm 1 m/s 714 mmHg 84%
    03:00 +7°C° 0 mm 1 m/s 714 mmHg 84%
    04:00 +7°C° 0 mm 1 m/s 714 mmHg 84%
    05:00 +7°C° 0 mm 1 m/s 714 mmHg 85%
    06:00 +7°C° 0 mm 1 m/s 714 mmHg 85%
    07:00 +8°C° 0 mm 2 m/s 715 mmHg 78%
    08:00 +12°C° 0 mm 2 m/s 716 mmHg 71%
    09:00 +14°C° 0 mm 2 m/s 716 mmHg 63%
    10:00 +15°C° 0 mm 2 m/s 716 mmHg 58%
    11:00 +16°C° 0 mm 3 m/s 716 mmHg 53%
    12:00 +18°C° 0 mm 3 m/s 716 mmHg 48%
    13:00 +18°C° 0 mm 3 m/s 716 mmHg 49%
    14:00 +18°C° 0 mm 3 m/s 716 mmHg 51%
    15:00 +18°C° 0 mm 3 m/s 715 mmHg 52%
    16:00 +16°C° 0 mm 3 m/s 715 mmHg 61%
    17:00 +13°C° 0 mm 3 m/s 715 mmHg 70%
    18:00 +11°C° 0 mm 3 m/s 715 mmHg 79%
    19:00 +12°C° 0 mm 2 m/s 715 mmHg 81%
    20:00 +10°C° 0 mm 2 m/s 715 mmHg 84%
    21:00 +10°C° 0 mm 1 m/s 716 mmHg 86%
    22:00 +10°C° 0 mm 1 m/s 715 mmHg 86%
    23:00 +9°C° 0 mm 1 m/s 715 mmHg 85%
    Arată mai mult